Weather History for Pellston, MI

Change the Weather History Date:

Tuesday, June 19, 2012

  Actual Average Record
Temperature  
Mean Temperature 72 °F -  
Max Temperature 82 °F 74 °F 92 °F (1988)
Min Temperature 64 °F 49 °F 32 °F (1958)
Cooling Degree Days 8    
Growing Degree Days 22 (Base 50)    
Moisture  
Dew Point 67 °F    
Average Humidity 87    
Maximum Humidity 100    
Minimum Humidity 67    
Precipitation  
Precipitation 0.00 in - - ()
Sea Level Pressure  
Sea Level Pressure 29.82 in    
Wind  
Wind Speed 4 mph (SW)    
Max Wind Speed 29 mph    
Max Gust Speed 50 mph    
Visibility 8 miles    
Events Rain , Thunderstorm    
Averages and records for this station are not official NWS values.
T = Trace of Precipitation, MM = Missing Value Source: NWS Daily Summary

Daily Weather History Graph

Daily Weather History Graph

Search for Another Location

Airport:

Trip Planner

Search our weather history database for the weather conditions in past years. The results will help you decide how hot, cold, wet, or windy it might be!

Date:

Astronomy

Jun. 19, 2012 Rise Set
Actual Time 5:49 AM EDT 9:31 PM EDT
Civil Twilight 5:11 AM EDT 10:09 PM EDT
Nautical Twilight 4:20 AM EDT 11:00 PM EDT
Astronomical Twilight 3:11 AM EDT 12:10 AM EDT
Moon 5:56 AM EDT (6/19) 9:32 PM EDT (6/19)
Length of Visible Light 16h 57m
Length of Day
15h 41m
New Moon, 0% of the Moon is Illuminated
Jun 19
New Moon
Jun 26
First Quarter
Jul 3
Full
Jul 10
Last Quarter
Jul 19
New

Hourly Weather History & Observations

Time (EDT) Temp. Heat Index Dew Point Humidity Pressure Visibility Wind Dir Wind Speed Gust Speed Precip Events Conditions
12:54 AM 69.1 °F - 66.9 °F 93% 29.71 in 10.0 mi SSE 6.9 mph - N/A   Clear
1:54 AM 70.0 °F - 66.9 °F 90% 29.72 in 10.0 mi South 4.6 mph - N/A   Clear
2:54 AM 70.0 °F - 66.9 °F 90% 29.73 in 10.0 mi Calm Calm - N/A   Clear
3:38 AM 66.2 °F - 64.4 °F 94% 29.75 in 1.5 mi Calm Calm - N/A   Clear
3:40 AM 64.4 °F - 64.4 °F 100% 29.75 in 1.0 mi Calm Calm - N/A   Mist
3:50 AM 66.2 °F - 66.2 °F 100% 29.75 in 2.0 mi Calm Calm - N/A   Partly Cloudy
3:54 AM 66.0 °F - 64.9 °F 96% 29.74 in 2.5 mi Calm Calm - N/A   Partly Cloudy
4:01 AM 68.0 °F - 66.2 °F 94% 29.75 in 8.0 mi Calm Calm - N/A   Partly Cloudy
4:54 AM 69.1 °F - 66.9 °F 93% 29.74 in 10.0 mi Calm Calm - N/A   Clear
5:54 AM 68.0 °F - 66.0 °F 93% 29.76 in 10.0 mi Calm Calm - N/A   Clear
6:54 AM 68.0 °F - 66.9 °F 96% 29.78 in 5.0 mi North 3.5 mph - N/A   Clear
7:54 AM 73.0 °F - 69.1 °F 87% 29.79 in 10.0 mi Calm Calm - N/A   Clear
8:54 AM 75.9 °F - 69.1 °F 79% 29.80 in 10.0 mi SW 4.6 mph - N/A   Clear
9:54 AM 79.0 °F - 70.0 °F 74% 29.84 in 10.0 mi West 8.1 mph - N/A   Clear
10:54 AM 78.1 °F - 69.1 °F 74% 29.86 in 10.0 mi West 10.4 mph 18.4 mph N/A   Clear
11:33 AM 71.6 °F - 66.2 °F 83% 29.95 in 5.0 mi WSW 28.8 mph 49.5 mph 0.05 in Rain , Thunderstorm Light Thunderstorms and Rain
3:54 PM 79.0 °F - 69.1 °F 72% 29.86 in 10.0 mi South 6.9 mph 16.1 mph N/A   Clear
4:54 PM 81.0 °F 84.1 °F 69.1 °F 67% 29.88 in 10.0 mi SSW 5.8 mph - N/A   Overcast
5:54 PM 81.0 °F 84.9 °F 71.1 °F 72% 29.89 in 10.0 mi North 6.9 mph - N/A   Overcast
6:54 PM 75.0 °F - 68.0 °F 79% 29.91 in 10.0 mi NW 9.2 mph - N/A   Scattered Clouds
7:54 PM 72.0 °F - 66.0 °F 81% 29.93 in 10.0 mi North 5.8 mph - N/A   Overcast
8:54 PM 71.1 °F - 66.9 °F 87% 29.93 in 10.0 mi East 4.6 mph - N/A   Clear
9:54 PM 69.1 °F - 66.0 °F 90% 29.92 in 10.0 mi SSE 4.6 mph - N/A   Clear
10:54 PM 68.0 °F - 66.9 °F 96% 29.93 in 10.0 mi Calm Calm - N/A   Clear
11:54 PM 68.0 °F - 66.9 °F 96% 29.94 in 10.0 mi Calm Calm - N/A   Clear